This is the latest recevied weather packets stored in our database for station/object 4S6DRJ-13. If no packets are shown the sender has not sent any weather packets the latest 10 day(s).
| Time | Temp. | Humidity | Pressure | Rain* | Wind** | Luminosity | Snow |
|---|---|---|---|---|---|---|---|
| 1788262719 | 30.56° C | 73% | 1008.2 hPa | 0 mm | 0.89 m/s, 243° | 192 W/m² | - |
| 1788262658 | 30.56° C | 73% | 1008.1 hPa | 0 mm | 1.34 m/s, 254° | 132 W/m² | - |
| 1788262536 | 30.56° C | 73% | 1008 hPa | 0 mm | 2.24 m/s, 40° | 241 W/m² | - |
| 1788262475 | 30.56° C | 73% | 1008.1 hPa | 0 mm | 2.68 m/s, 254° | 213 W/m² | - |
| 1788262414 | 30.56° C | 73% | 1008.1 hPa | 0 mm | 2.68 m/s, 213° | 210 W/m² | - |
| 1788262353 | 30.56° C | 73% | 1008 hPa | 0 mm | 3.13 m/s, 305° | 221 W/m² | - |
| 1788262292 | 30.56° C | 73% | 1008.1 hPa | 0 mm | 1.34 m/s, 197° | 239 W/m² | - |
| 1788262231 | 30.56° C | 73% | 1008.1 hPa | 0 mm | 1.34 m/s, 265° | 251 W/m² | - |
| 1788262170 | 30.56° C | 73% | 1008.1 hPa | 0 mm | 1.79 m/s, 190° | 243 W/m² | - |
| 1788262109 | 30.56° C | 72% | 1008 hPa | 0 mm | 1.79 m/s, 263° | 243 W/m² | - |
| 1788262048 | 30.56° C | 72% | 1008.2 hPa | 0 mm | 2.24 m/s, 174° | 152 W/m² | - |
| 1788261987 | 30.56° C | 71% | 1008 hPa | 0 mm | 4.92 m/s, 232° | 256 W/m² | - |
| 1788261926 | 30.56° C | 71% | 1008 hPa | 0 mm | 1.34 m/s, 226° | 181 W/m² | - |
| 1788261865 | 30.56° C | 71% | 1008 hPa | 0 mm | 1.34 m/s, 203° | 280 W/m² | - |
| 1788261804 | 30.56° C | 72% | 1007.8 hPa | 0 mm | 1.34 m/s, 275° | 277 W/m² | - |
| 1788261744 | 30.56° C | 71% | 1008 hPa | 0 mm | 1.34 m/s, 311° | 280 W/m² | - |
| 1788261682 | 30.56° C | 71% | 1007.8 hPa | 0 mm | 1.79 m/s, 3° | 258 W/m² | - |
| 1788261621 | 30.56° C | 72% | 1007.8 hPa | 0 mm | 1.34 m/s, 275° | 182 W/m² | - |
| 1788261560 | 30.56° C | 72% | 1007.9 hPa | 0 mm | 1.34 m/s, 67° | 311 W/m² | - |
| 1788261499 | 30.56° C | 72% | 1007.9 hPa | 0 mm | 0.89 m/s, 215° | 296 W/m² | - |
| 1788261438 | 30.56° C | 72% | 1007.9 hPa | 0 mm | 1.79 m/s, 171° | 251 W/m² | - |
| 1788261377 | 30.56° C | 73% | 1007.7 hPa | 0 mm | 2.24 m/s, 302° | 315 W/m² | - |
| 1788261316 | 30.56° C | 73% | 1007.9 hPa | 0 mm | 1.34 m/s, 206° | 330 W/m² | - |
| 1788261255 | 30.56° C | 73% | 1007.8 hPa | 0 mm | 1.79 m/s, 72° | 348 W/m² | - |
| 1788261194 | 30.56° C | 72% | 1007.8 hPa | 0 mm | 2.68 m/s, 220° | 348 W/m² | - |
* Rain latest hour (hover to see other rain measurements)
** Current wind speed in m/s (hover to see current wind gust speed)